This is the latest recevied weather packets stored in our database for station/object XE2KK-10. If no packets are shown the sender has not sent any weather packets the latest 10 day(s).
| Time | Temp. | Humidity | Pressure | Rain* | Wind** | Luminosity | Snow |
|---|---|---|---|---|---|---|---|
| 1777495452 | 36.67° C | 42% | 1008.6 hPa | 0 mm | - | 676 W/m² | - |
| 1777495153 | 36.67° C | 43% | 1008.4 hPa | 0 mm | - | 723 W/m² | - |
| 1777494856 | 36.67° C | 42% | 1008.9 hPa | 0 mm | - | 734 W/m² | - |
| 1777494853 | 36.67° C | 42% | 1008.9 hPa | 0 mm | - | 734 W/m² | - |
| 1777494553 | 36.67° C | 42% | 1008.7 hPa | 0 mm | - | 736 W/m² | - |
| 1777494253 | 36.11° C | 43% | 1009 hPa | 0 mm | - | 738 W/m² | - |
| 1777493952 | 36.67° C | 42% | 1009 hPa | 0 mm | - | 740 W/m² | - |
| 1777493652 | 36.67° C | 44% | 1009.5 hPa | 0 mm | - | 742 W/m² | - |
| 1777493353 | 36.11° C | 46% | 1009.5 hPa | 0 mm | - | 776 W/m² | - |
| 1777493053 | 35.56° C | 45% | 1009.3 hPa | 0 mm | - | 757 W/m² | - |
| 1777492753 | 35.56° C | 46% | 1009.9 hPa | 0 mm | - | 554 W/m² | - |
| 1777492453 | 35.56° C | 46% | 1009.8 hPa | 0 mm | - | 377 W/m² | - |
| 1777492152 | 35.56° C | 46% | 1010 hPa | 0 mm | - | 800 W/m² | - |
| 1777491852 | 35.56° C | 47% | 1010 hPa | 0 mm | - | 818 W/m² | - |
| 1777491553 | 35.56° C | 47% | 1010 hPa | 0 mm | - | 756 W/m² | - |
| 1777491253 | 35.56° C | 46% | 1010 hPa | 0 mm | - | 782 W/m² | - |
| 1777490953 | 35.56° C | 46% | 1010 hPa | 0 mm | - | 760 W/m² | - |
| 1777490653 | 35.56° C | 48% | 1010.2 hPa | 0 mm | - | 733 W/m² | - |
| 1777490352 | 35° C | 47% | 1010 hPa | 0 mm | - | 752 W/m² | - |
| 1777490052 | 35° C | 48% | 1010.4 hPa | 0 mm | - | 764 W/m² | - |
| 1777489753 | 34.44° C | 51% | 1010.4 hPa | 0 mm | - | 781 W/m² | - |
| 1777489453 | 34.44° C | 51% | 1010.5 hPa | 0 mm | - | 752 W/m² | - |
| 1777489153 | 33.89° C | 51% | 1010.7 hPa | 0 mm | - | 762 W/m² | - |
| 1777488853 | 34.44° C | 51% | 1010.7 hPa | 0 mm | - | 745 W/m² | - |
| 1777488552 | 34.44° C | 49% | 1010.8 hPa | 0 mm | - | 753 W/m² | - |
* Rain latest hour (hover to see other rain measurements)
** Current wind speed in m/s (hover to see current wind gust speed)